DW9493 Weather Reports


Display with metric or nautical units.
time (UTC)temp
F
wind
direction
speed
MPH
gust
MPH
rain 1hr
in
rain 24hr
in
rain mn
in
humidity
%
barometer
mb
20260903230841 78 33 3.0 13.0 0.00 0.00 0.00 25 1022.0
20260903225405 78 56 3.0 11.0 0.00 0.00 0.00 23 1022.0
20260903224405 79 359 2.0 8.0 0.00 0.00 0.00 24 1021.8
20260903223406 78 353 5.0 14.0 0.00 0.00 0.00 25 1022.0
20260903222349 79 322 2.0 8.0 0.00 0.00 0.00 25 1021.8
20260903221349 79 317 2.0 8.0 0.00 0.00 0.00 24 1022.0
20260903220349 79 107 3.0 9.0 0.00 0.00 0.00 24 1022.0
20260903215348 79 82 2.0 9.0 0.00 0.00 0.00 25 1022.1
20260903214347 79 16 3.0 9.0 0.00 0.00 0.00 23 1022.2
20260903213347 80 35 3.0 14.0 0.00 0.00 0.00 24 1022.2
20260903212347 78 79 5.0 10.0 0.00 0.00 0.00 26 1022.2
20260903211347 79 346 4.0 19.0 0.00 0.00 0.00 25 1022.4
20260903210825 79 335 5.0 17.0 0.00 0.00 0.00 25 1022.2
20260903205316 79 20 4.0 11.0 0.00 0.00 0.00 25 1022.4
20260903204301 78 82 3.0 11.0 0.00 0.00 0.00 26 1022.6
20260903203258 78 142 4.0 12.0 0.00 0.00 0.00 26 1022.7
20260903202738 78 348 5.0 17.0 0.00 0.00 0.00 25 1022.6
20260903201254 79 23 5.0 13.0 0.00 0.00 0.00 25 1022.6
20260903200255 81 104 2.0 11.0 0.00 0.00 0.00 24 1022.7
20260903195255 81 27 2.0 5.0 0.00 0.00 0.00 22 1022.7
20260903194252 81 122 1.0 7.0 0.00 0.00 0.00 22 1022.9
20260903193250 80 155 2.0 5.0 0.00 0.00 0.00 23 1022.9
20260903192249 80 132 1.0 7.0 0.00 0.00 0.00 24 1023.0
20260903191249 78 338 2.0 6.0 0.00 0.00 0.00 24 1023.2
20260903190249 78 309 2.0 6.0 0.00 0.00 0.00 25 1023.4
20260903185242 79 135 1.0 7.0 0.00 0.00 0.00 24 1023.4
20260903184242 78 182 2.0 6.0 0.00 0.00 0.00 23 1023.5
20260903183226 78 52 2.0 12.0 0.00 0.00 0.00 24 1023.6
20260903182222 77 195 3.0 11.0 0.00 0.00 0.00 26 1023.9
20260903181221 76 68 2.0 9.0 0.00 0.00 0.00 27 1024.1
20260903180219 76 126 2.0 7.0 0.00 0.00 0.00 27 1024.1
20260903175219 76 32 4.0 9.0 0.00 0.00 0.00 28 1024.1
20260903174216 76 49 2.0 9.0 0.00 0.00 0.00 27 1024.2
20260903173215 76 106 2.0 7.0 0.00 0.00 0.00 27 1024.2
20260903172216 77 32 1.0 5.0 0.00 0.00 0.00 24 1024.4
20260903171214 77 205 1.0 3.0 0.00 0.00 0.00 23 1024.4
20260903170212 75 5 2.0 9.0 0.00 0.00 0.00 28 1024.2
20260903165654 75 238 1.0 4.0 0.00 0.00 0.00 27 1024.4
20260903164209 74 305 1.0 5.0 0.00 0.00 0.00 29 1024.4
20260903163207 74 36 1.0 6.0 0.00 0.00 0.00 28 1024.4
20260903162208 73 40 1.0 5.0 0.00 0.00 0.00 30 1024.4
20260903161207 72 60 1.0 4.0 0.00 0.00 0.00 31 1024.4
20260903160201 72 292 2.0 5.0 0.00 0.00 0.00 33 1024.4
20260903155158 72 318 1.0 4.0 0.00 0.00 0.00 31 1024.5
20260903154159 71 307 1.0 4.0 0.00 0.00 0.00 32 1024.4
20260903153159 70 91 1.0 8.0 0.00 0.00 0.00 36 1024.2
20260903152159 69 314 1.0 6.0 0.00 0.00 0.00 37 1024.5
20260903151157 70 316 0.0 2.0 0.00 0.00 0.00 37 1024.5
20260903150635 69 81 0.0 2.0 0.00 0.00 0.00 37 1024.6
20260903145154 68 132 0.0 1.0 0.00 0.00 0.00 40 1024.7
20260903144155 66 134 0.0 1.0 0.00 0.00 0.00 42 1024.9
20260903143150 64 328 1.0 3.0 0.00 0.00 0.00 43 1024.7
20260903142628 64 106 0.0 2.0 0.00 0.00 0.00 45 1024.9
20260903141153 63 18 0.0 1.0 0.00 0.00 0.00 47 1024.9
20260903140141 61 19 0.0 1.0 0.00 0.00 0.00 51 1024.7
20260903135140 60 101 0.0 3.0 0.00 0.00 0.00 49 1024.6
20260903134141 58 308 1.0 2.0 0.00 0.00 0.00 53 1024.5
20260903133140 56 312 0.0 3.0 0.00 0.00 0.00 59 1024.4
20260903133050 55 312 0.0 2.0 0.00 0.00 0.00 60 1024.4
20260903131140 53 313 0.0 2.0 0.00 0.00 0.00 59 1024.2
20260903130131 52 235 0.0 5.0 0.00 0.00 0.00 61 1024.2
20260903125131 51 318 1.0 4.0 0.00 0.00 0.00 61 1024.1
20260903124132 51 287 2.0 7.0 0.00 0.00 0.00 60 1023.9
20260903123132 50 210 2.0 6.0 0.00 0.00 0.00 65 1023.7
20260903122127 49 310 0.0 3.0 0.00 0.00 0.00 66 1023.7
20260903121127 49 316 1.0 4.0 0.00 0.00 0.00 66 1023.7
20260903120121 49 203 0.0 3.0 0.00 0.00 0.00 64 1023.6
20260903115121 50 242 0.0 2.0 0.00 0.00 0.00 64 1023.7
20260903115032 49 319 0.0 2.0 0.00 0.00 0.00 66 1023.6
20260903113116 49 328 0.0 0.0 0.00 0.00 0.00 66 1023.6
20260903112115 50 326 0.0 2.0 0.00 0.00 0.00 64 1023.6
20260903112031 50 240 1.0 3.0 0.00 0.00 0.00 63 1023.5
20260903110116 51 259 0.0 2.0 0.00 0.00 0.00 63 1023.6
20260903105113 50 191 0.0 1.0 0.00 0.00 0.00 64 1023.6
20260903104113 50 315 0.0 3.0 0.00 0.00 0.00 66 1023.5
20260903103114 50 242 1.0 3.0 0.00 0.00 0.00 63 1023.6
20260903102112 51 315 0.0 1.0 0.00 0.00 0.00 61 1023.6
20260903101113 51 315 0.0 1.0 0.00 0.00 0.00 63 1023.6
20260903100604 51 304 0.0 1.0 0.00 0.00 0.00 62 1023.6
20260903095110 51 312 0.0 3.0 0.00 0.00 0.00 63 1023.5
20260903094546 51 201 1.0 4.0 0.00 0.00 0.00 63 1023.6
20260903093111 51 319 1.0 4.0 0.00 0.00 0.00 66 1023.6
20260903092554 51 314 1.0 6.0 0.00 0.00 0.00 66 1023.6
20260903091553 51 248 0.0 1.0 0.00 0.00 0.00 67 1023.6
20260903085102 51 198 0.0 0.0 0.00 0.00 0.00 68 1023.7
20260903084042 52 198 0.0 1.0 0.00 0.00 0.00 66 1023.7
20260903083033 52 321 0.0 3.0 0.00 0.00 0.00 67 1023.7
20260903082032 51 252 0.0 2.0 0.00 0.00 0.00 68 1023.7
20260903081029 51 326 0.0 3.0 0.00 0.00 0.00 71 1023.6
20260903080027 52 319 0.0 2.0 0.00 0.00 0.00 71 1023.6
20260903075504 53 284 0.0 1.0 0.00 0.00 0.00 69 1023.7
20260903074028 54 262 0.0 2.0 0.00 0.00 0.00 68 1023.7
20260903073018 53 330 0.0 1.0 0.00 0.00 0.00 69 1023.9
20260903072450 52 330 0.0 2.0 0.00 0.00 0.00 72 1024.0
20260903071015 53 214 0.0 1.0 0.00 0.00 0.00 70 1024.1
20260903070015 53 263 0.0 1.0 0.00 0.00 0.00 71 1024.2
20260903065015 53 325 0.0 2.0 0.00 0.00 0.00 71 1024.1
20260903064011 54 259 0.0 0.0 0.00 0.00 0.00 72 1024.2
20260903063011 55 259 0.0 1.0 0.00 0.00 0.00 70 1024.4
20260903062010 55 259 0.0 1.0 0.00 0.00 0.00 72 1024.4
20260903061010 55 205 0.0 0.0 0.00 0.00 0.00 70 1024.1
20260903060008 56 205 0.0 3.0 0.00 0.00 0.00 68 1024.1
20260903055007 57 205 1.0 3.0 0.00 0.00 0.00 67 1024.0
20260903054009 57 204 0.0 1.0 0.00 0.00 0.00 70 1024.0
20260903053008 58 204 0.0 2.0 0.00 0.00 0.00 68 1024.2
20260903052007 59 307 0.0 1.0 0.00 0.00 0.00 66 1024.2
20260903051006 60 107 0.0 1.0 0.00 0.00 0.00 64 1024.1
20260903050006 60 107 0.0 1.0 0.00 0.00 0.00 64 1024.2
20260903045005 60 107 2.0 8.0 0.00 0.00 0.00 64 1024.4
20260903043948 60 322 1.0 6.0 0.00 0.00 0.00 64 1024.0
20260903042946 60 147 1.0 4.0 0.00 0.00 0.00 66 1024.1
20260903041947 61 302 1.0 3.0 0.00 0.00 0.00 60 1024.5
20260903041426 61 312 1.0 3.0 0.00 0.00 0.00 59 1024.9
20260903035947 60 264 0.0 2.0 0.00 0.00 0.00 64 1024.9
20260903034948 60 232 0.0 1.0 0.00 0.00 0.00 63 1024.6
20260903033945 60 231 0.0 4.0 0.00 0.00 0.00 64 1024.7
20260903032945 60 315 0.0 0.0 0.00 0.00 0.00 61 1024.6
20260903031941 60 315 0.0 1.0 0.00 0.00 0.00 60 1024.4
20260903030942 61 316 1.0 4.0 0.00 0.00 0.00 58 1024.4
20260903025940 62 242 1.0 2.0 0.00 0.00 0.00 59 1024.0
20260903024941 62 329 2.0 5.0 0.00 0.00 0.00 60 1024.0
20260903023939 62 134 1.0 5.0 0.00 0.00 0.00 60 1024.1
20260903022939 63 121 0.0 2.0 0.00 0.00 0.00 59 1024.2
20260903021940 64 44 0.0 1.0 0.00 0.00 0.00 56 1024.1
20260903020939 65 51 3.0 11.0 0.00 0.00 0.00 51 1024.1
20260903015939 65 132 2.0 10.0 0.00 0.00 0.00 51 1024.1
20260903015905 66 266 4.0 9.0 0.00 0.00 0.00 49 1023.9
20260903013939 66 353 1.0 3.0 0.00 0.00 0.00 48 1023.5
20260903012939 66 267 0.0 4.0 0.00 0.00 0.00 47 1023.5
20260903011936 67 314 2.0 9.0 0.00 0.00 0.00 45 1023.4
20260903010937 67 274 4.0 13.0 0.00 0.00 0.00 45 1023.2
20260903005937 67 314 3.0 10.0 0.00 0.00 0.00 47 1023.2
20260903004936 66 271 3.0 7.0 0.00 0.00 0.00 48 1023.6
20260903004425 66 253 4.0 8.0 0.00 0.00 0.00 49 1023.5
20260903002937 66 258 4.0 7.0 0.00 0.00 0.00 50 1023.5
20260903001938 65 281 5.0 8.0 0.00 0.00 0.00 50 1023.2
20260903000934 65 252 5.0 9.0 0.00 0.00 0.00 53 1023.2
20260902235934 68 239 6.0 10.0 0.00 0.00 0.00 48 1023.4
20260902234906 70 270 4.0 8.0 0.00 0.00 0.00 41 1023.5
20260902233903 71 248 3.0 10.0 0.00 0.00 0.00 38 1023.2
20260902232856 72 305 5.0 9.0 0.00 0.00 0.00 34 1023.1
20260902231857 74 325 5.0 10.0 0.00 0.00 0.00 32 1023.2